Location: Meinert
(37.9441°N, 122.0275°W)
Time: 19:18:49
(UTC+00:00)

Cosmos 1943 - Pass Details

Date: 18 April 2024
Orbit: 832 x 849 km, 71.0° (Epoch: 23 May)

Event Time Altitude Azimuth Distance (km) Brightness Sun altitude
Exits shadow 12:45:00 - 214° (SW) 2,911 5.5 -8.8°
Reaches altitude 10° 12:46:12 10° 217° (SW) 2,464 5.1 -8.6°
Maximum altitude 12:51:46 57° 295° (WNW) 996 3.4 -7.6°
Drops below altitude 10° 12:57:22 10° 14° (NNE) 2,480 6.1 -6.6°
Sets 12:59:53 0° 19° (NNE) 3,418 7.0 -6.1°
